Regional Weather Roundup
Issued by NWS Goodland, KS

Home | Current Version | Previous Version | Graphics & Text | Print | Product List | Glossary On
Versions: 1 2 3 4 5 6 7 8 9 10 11 12 13 14 15 16 17 18 19 20 21 22 23 24 25 26 27 28 29 30 31 32 33 34 35 36 37 38 39 40 41 42 43 44 45 46 47 48 49 50
000
ASUS43 KGLD 101508
RWRGLD

GOODLAND FORECAST AREA HOURLY WEATHER ROUNDUP
NATIONAL WEATHER SERVICE GOODLAND KS
800 AM MST SAT DEC 10 2016

...OFFICIAL OBSERVATIONS...

CITY           SKY/WX    TMP DP  RH WIND       PRES   REMARKS
GOODLAND KS    CLOUDY    20  18  92 S10       29.98F FOG     WCI   9
HILL CITY KS   CLOUDY    19  14  81 SE6       30.17F
IMPERIAL NEB   CLOUDY    18  14  84 SE15      30.00F WCI   4
MCCOOK NEB     CLOUDY    17  13  84 SE10      30.09F WCI   5
AKRON CO       CLOUDY    19  15  84 W8        29.90F
BURLINGTON CO  CLOUDY    24  19  81 SW8       29.96F
LIMON CO       CLOUDY    15  13  91 NW3       29.93F
$$

...UNOFFICIAL OBSERVATIONS...

CITY           SKY/WX    TMP DP  RH WIND       PRES   REMARKS
COLBY KS       CLOUDY    16  16 100 SE9       30.07F
LENORA KS        N/A     18  32 100 MISG        N/A
NORTON KS      CLEAR     18  10  73 E12       30.13F WCI   5
SHARON SPRINGS   N/A     20  18  91 S9          N/A
TRENTON NEB      N/A     16  32 100 S8          N/A
KIT CARSON CO    N/A     15  12  88 CALM        N/A
YUMA CO        FAIR     N/A N/A N/A W3        29.93F
$$



USA.gov is the U.S. government's official web portal to all federal, state and local government web resources and services.